Flag for Poland Weather past 2 weeks in Koszalin, Poland

Now
54 °F

Overcast.


Feels Like: 54 °F
Forecast: 50 / 58 °F
Wind: 2 mph from Southeast

Location: Koszalin

Current Time: May 30, 2015 at 12:56:57 AM

Latest Report: May 30, 2015 at 12:00 AM


Visibility: 18 mi

Pressure: 29.76 "Hg

Humidity: 78%

Dew point: 47 °F

Location of KoszalinLocation

Historic Weather in Koszalin — Graph

°F

Koszalin temperature yesterday

Maximum temperature yesterday: 57 °F (at 2:00 PM)
Minimum temperature yesterday: 48 °F (at 5:00 AM)
Average temperature yesterday: 53 °F

Past Weeks' High & Low Weather Summary

 TemperatureHumidityPressure
High68 °F (May 25, 11:00 AM)95% (May 24, 4:00 AM)30.30 "Hg (May 24, 4:00 AM)
Low40 °F (May 24, 4:00 AM)36% (May 25, 11:00 AM)29.58 "Hg (May 19, 9:00 AM)
Average52 °F73%29.99 "Hg
* Reported Midnight between May 14 and May 15 — Midnight between May 29 and May 30, Koszalin, Weather by CustomWeather, © 2015

Note: Actual official high and low records may vary slightly from our data, if they occured in-between our weather recording intervals... More about our weather records

Advertising

Koszalin weather history for previous 24 hours

 ConditionsComfort  
Time TempWeatherWind HumidityBarometerVisibility
12:00 AM
Sat, May 30
54 °FOvercast.2 mph78%29.76 "Hg18 mi
10:00 PM
Fri, May 29
54 °FOvercast.1 mph72%29.80 "Hg16 mi
9:00 PM54 °FOvercast.1 mph72%29.82 "Hg17 mi
8:00 PM54 °FOvercast.2 mph73%29.83 "Hg19 mi
7:00 PM55 °FOvercast.3 mph67%29.84 "Hg22 mi
6:00 PM55 °FOvercast.3 mph66%29.86 "Hg22 mi
5:00 PM55 °FOvercast.3 mph62%29.87 "Hg22 mi
4:00 PM55 °FOvercast.3 mph66%29.88 "Hg22 mi
3:00 PM55 °FOvercast.5 mph62%29.90 "Hg25 mi
2:00 PM57 °FPartly sunny.3 mph65%29.90 "Hg17 mi
1:00 PM56 °FPartly sunny.2 mph66%29.91 "Hg19 mi
12:00 PM56 °FScattered clouds.5 mph66%29.93 "Hg16 mi
11:00 AM55 °FPartly sunny.5 mph65%29.93 "Hg19 mi
10:00 AM54 °FScattered clouds.3 mph65%29.92 "Hg22 mi
9:00 AM53 °FPartly sunny.3 mph78%29.93 "Hg16 mi
8:00 AM51 °FScattered clouds.3 mph87%29.92 "Hg12 mi
7:00 AM49 °FPassing clouds.3 mph91%29.90 "Hg8 mi
6:00 AM48 °FPassing clouds.2 mph94%29.90 "Hg7 mi
5:00 AM48 °FPassing clouds.3 mph93%29.89 "Hg9 mi
4:00 AM48 °FPassing clouds.2 mph94%29.88 "Hg8 mi
3:00 AM49 °FOvercast.3 mph94%29.88 "Hg9 mi
2:00 AM50 °FLow clouds.3 mph95%29.87 "Hg9 mi
1:00 AM50 °FLow clouds.2 mph94%29.87 "Hg9 mi
Weather by CustomWeather, © 2015

See weather overviewHow to use our weather pages